Location: Unspecified
(0.0000°N, 0.0000°E)
Time: 13:57:31
(UTC+00:00)

CZ-4 DEB - Pass Details

Date: 21 June 2024
Orbit: 785 x 976 km, 99.1° (Epoch: 18 July)

Event Time Altitude Azimuth Distance (km) Brightness Sun altitude
Exits shadow 19:20:44 28° 101° (ESE) 1,730 ? -18.0°
Maximum altitude 19:22:12 31° 76° (ENE) 1,627 ? -18.3°
Drops below altitude 10° 19:27:28 10° 17° (NNE) 2,713 ? -19.5°
Sets 19:30:13 0° 7° (N) 3,660 ? -20.1°
